"Pseudo-MPEC" for P10HLN1

Created 2018 Jun 16 1:18:13 UT using Find_Orb

Click here for an explanation of pseudo-MPECs

 
 Astrometry: 
     P10HLN1  C2018 06 12.kAstrometrym=)h*!ED[`3kJBcGw9j93_K1HyRWCJs'l#(7QVQwF51
     P10HLN1  C2018 06 12'M`NJTr=g2hSZg+kC(/.@lv0+R;(YhCa8wZUlCqdr.+h$nPx`*tJF51
     P10HLN1  C2018 06 126Mer`S;HEl(T1NQ\._$DH(ly'-]UWs(Cliva7B.sP?G(!/D:jH88F51
     P10HLN1  C2018 06 12*_kelOA##FHlw0]sVI7WQlAua1wSI\8o!^xBb.Il_3*X+:(vL3BmF51
     P10HLN1  C2018 06 12c)$:7'v)PxhNtPOt8redacted;RAR?%0$?lTEvlCZJ]qR4T\fB1`F51
     P10HLN1  C2018 06 12L:5?l0qe5[i.NCT.sFQSqh$#Y_hUJO(d!VNru=SdK[aYC[NhQ=m.F51
     P10HLN1  C2018 06 12?mb[rkc\/dm76hTD-YYn9#)s+LJH?XBy%*ZwuxZ^'uSo)QVb0%!3F51
     P10HLN1 KC2018 06 13.t?ZDASV=R6Gggve!Z'(/4x8eT!vYcBQ\VOXd,upvC]cse.*m=rE291
     P10HLN1 KC2018 06 130^T1Z3gw/Z@H8*T3*08m^:XlxLcqqs/K*C9L@DTBlFL4'*D?x\30291
     P10HLN1 KC2018 06 13N2\8].1F3piv/)@KgdRgx3LwR$Y?4.+qseeBYehl[WMWAVR_[?#g291
     P10HLN1 ^C2018 06 13.59747021 18 25.582-34 02 29.09         20.74GVNEOCP568
     P10HLN1 ^C2018 06 13.59841421 18 25.724-34 02 29.48         20.73GVNEOCP568
     P10HLN1 ^C2018 06 13.59936121 18 25.860-34 02 29.93         20.66GVNEOCP568
     P10HLN1 KC2018 06 14,2S,62Kt1vNTU:B!uTN-O^_4t$k;dGwg3(8an46HCPDE%RM2'fKo474
     P10HLN1 KC2018 06 14:OaUn.KE/N2v0K7$9M]W%\]WcI_Ou.CJoyrXJ=ARP=cUTAn\HQ9'474
     P10HLN1 KC2018 06 143v^wFwu`JEU#rgM5.Z?KwtZriptt/!b`:_`7?[QCZ-FRtNB].a._474
     P10HLN1 KC2018 06 14\BW%8RySabm_t]6=qwdJLlF/T-q9CnJH`Hb0c$Wdp^=aU58NEOCP474

Station data:
(291) LPL/Spacewatch II  (N31.961669 W111.599905)  US/Arizona.  Observers J.
   V. Scotti, R. S. McMillan. 1.8-m f/2.7 reflector + CCD.
(474) Mount John Observatory, Lake Tekapo  (S43.987388 E170.464960)  New
   Zealand.  Observers A. C. Gilmore, P. M. Kilmartin. Measurer P. M.
   Kilmartin. 1.0-m f/7.7 reflector + CCD.
(568) Mauna Kea  (N19.826116 W155.472200)  US/Hawaii.
(F51) Pan-STARRS 1, Haleakala  (N20.707235 W156.255910)  US/Hawaii.
   Observers N. Primak, A. Schultz, S. Watters, J. Thiel, T. Goggia. Measurer
   PS1 Science Consortium. 1.8-m Ritchey-Chrétien + CCD.

Orbital elements:  P10HLN1
   Perihelion 2018 Jun 23.614240 +/- 0.906 TT = 14:44:30 (JD 2458293.114240)
Epoch 2018 Jun 14.0 TT = JDT 2458283.5   Earth MOID: 0.3468   Ma: 0.0041
M 357.06203 +/- 0.41                (J2000 ecliptic)          AutoNEOCP
n   0.30558481 +/- 0.0203           Peri.  241.04048 +/- 1.1
a   2.18297217 +/- 0.0967           Node    42.99807 +/- 0.7
e   0.3860714 +/- 0.0227            Incl.    7.17401 +/- 0.19
P   3.23                   H 20.5   G  0.15   U 10.1  
q 1.34018898 +/- 0.0108    Q 3.02575536 +/- 0.199
From 17 observations 2018 June 12-14; mean residual 0".25
Residuals in arcseconds: 
180612 F51  .21-  .06+    180612 F51  .08+  .04-    180613 568  .03-  .11-    
180612 F51  .15+  .06-    180613 291  .34+  .44+    180614 474  .64+  .42-    
180612 F51  .06-  .02-    180613 291  .12-  .25+    180614 474  .07+  .10+    
180612 F51  .02+  .02+    180613 291  .09-  .34-    180614 474  .74-  .52+    
180612 F51  .13+  .08-    180613 568  .08-  .08-    180614 474  .03+  .23-    
180612 F51  .13-  .03+    180613 568  .01-  .07-    

Ephemerides (geocentric):
Date (UTC) HH   RA              Dec         delta   r     elong  mag " sig PA
---- -- -- --  -------------   -----------  ------ ------ -----  --- ---- ---
2018 06 16 01  21 24 36.215   -34 19 41.69  .44313 1.3420 129.5 20.8  1.0  33
2018 06 16 02  21 24 42.409   -34 19 59.43  .44301 1.3420 129.5 20.8  1.1  33
2018 06 16 03  21 24 48.598   -34 20 17.16  .44290 1.3420 129.5 20.8  1.1  33
2018 06 16 04  21 24 54.783   -34 20 34.89  .44278 1.3420 129.5 20.8  1.1  33
2018 06 16 05  21 25 00.963   -34 20 52.62  .44267 1.3419 129.6 20.8  1.2  33
2018 06 16 06  21 25 07.140   -34 21 10.34  .44256 1.3419 129.6 20.8  1.2  32
2018 06 16 07  21 25 13.311   -34 21 28.05  .44244 1.3419 129.6 20.8  1.2  32
2018 06 16 08  21 25 19.479   -34 21 45.77  .44233 1.3419 129.6 20.8  1.3  32
2018 06 16 09  21 25 25.642   -34 22 03.47  .44221 1.3419 129.6 20.8  1.3  32
2018 06 16 10  21 25 31.802   -34 22 21.17  .44210 1.3418 129.6 20.8  1.3  32
2018 06 16 11  21 25 37.956   -34 22 38.87  .44199 1.3418 129.7 20.8  1.4  32
2018 06 16 12  21 25 44.107   -34 22 56.56  .44187 1.3418 129.7 20.8  1.4  32
2018 06 16 13  21 25 50.253   -34 23 14.25  .44176 1.3418 129.7 20.8  1.5  32
2018 06 16 14  21 25 56.395   -34 23 31.93  .44165 1.3418 129.7 20.8  1.5  32
2018 06 16 15  21 26 02.532   -34 23 49.61  .44153 1.3417 129.7 20.8  1.5  32
2018 06 16 16  21 26 08.665   -34 24 07.28  .44142 1.3417 129.7 20.8  1.6  32
2018 06 16 17  21 26 14.794   -34 24 24.95  .44131 1.3417 129.8 20.8  1.6  32
2018 06 16 18  21 26 20.918   -34 24 42.61  .44120 1.3417 129.8 20.8  1.7  32
2018 06 16 19  21 26 27.038   -34 25 00.27  .44108 1.3417 129.8 20.8  1.7  32
2018 06 16 20  21 26 33.154   -34 25 17.92  .44097 1.3417 129.8 20.8  1.7  32
2018 06 16 21  21 26 39.265   -34 25 35.57  .44086 1.3416 129.8 20.8  1.8  32
2018 06 16 22  21 26 45.372   -34 25 53.21  .44075 1.3416 129.8 20.8  1.8  32
2018 06 16 23  21 26 51.474   -34 26 10.85  .44064 1.3416 129.8 20.8  1.9  31
2018 06 17 00  21 26 57.573   -34 26 28.48  .44053 1.3416 129.9 20.8  1.9  31
2018 06 17 01  21 27 03.666   -34 26 46.11  .44041 1.3416 129.9 20.8  1.9  31
2018 06 17 02  21 27 09.756   -34 27 03.74  .44030 1.3415 129.9 20.8  2.0  31
2018 06 17 03  21 27 15.841   -34 27 21.35  .44019 1.3415 129.9 20.8  2.0  31
2018 06 17 04  21 27 21.921   -34 27 38.97  .44008 1.3415 129.9 20.8  2.1  31
2018 06 17 05  21 27 27.997   -34 27 56.57  .43997 1.3415 129.9 20.8  2.1  31
2018 06 17 06  21 27 34.069   -34 28 14.18  .43986 1.3415 130.0 20.8  2.2  31
2018 06 17 07  21 27 40.136   -34 28 31.78  .43975 1.3415 130.0 20.8  2.2  31
2018 06 17 08  21 27 46.199   -34 28 49.37  .43964 1.3414 130.0 20.8  2.2  31
2018 06 17 09  21 27 52.257   -34 29 06.96  .43953 1.3414 130.0 20.8  2.3  31
2018 06 17 10  21 27 58.311   -34 29 24.54  .43942 1.3414 130.0 20.8  2.3  31
2018 06 17 11  21 28 04.361   -34 29 42.12  .43931 1.3414 130.0 20.8  2.4  31
2018 06 17 12  21 28 10.406   -34 29 59.69  .43920 1.3414 130.0 20.8  2.4  31
2018 06 17 13  21 28 16.447   -34 30 17.26  .43909 1.3414 130.1 20.8  2.5  31
2018 06 17 14  21 28 22.483   -34 30 34.82  .43898 1.3413 130.1 20.8  2.5  31
2018 06 17 15  21 28 28.514   -34 30 52.38  .43887 1.3413 130.1 20.8  2.6  31
2018 06 17 16  21 28 34.542   -34 31 09.93  .43876 1.3413 130.1 20.8  2.6  31
2018 06 17 17  21 28 40.564   -34 31 27.48  .43866 1.3413 130.1 20.8  2.7  31
2018 06 17 18  21 28 46.582   -34 31 45.02  .43855 1.3413 130.1 20.8  2.7  31
2018 06 17 19  21 28 52.596   -34 32 02.56  .43844 1.3413 130.2 20.8  2.8  31
2018 06 17 20  21 28 58.605   -34 32 20.09  .43833 1.3413 130.2 20.8  2.8  31
2018 06 17 21  21 29 04.610   -34 32 37.62  .43822 1.3412 130.2 20.8  2.9  31
2018 06 17 22  21 29 10.610   -34 32 55.14  .43811 1.3412 130.2 20.8  2.9  31
2018 06 17 23  21 29 16.606   -34 33 12.65  .43801 1.3412 130.2 20.8  3.0  31
2018 06 18 00  21 29 22.597   -34 33 30.16  .43790 1.3412 130.2 20.8  3.0  31